Flag for Germany Weather past 2 weeks in Herford, North Rhine-Westphalia, Germany

Now
57 °F

Partly sunny.


Feels Like: 56 °F
Forecast: 54 / 69 °F
Wind: 6 mph from West

Location: Bueckeburg

Current Time: Sep 1, 2014 at 10:32:19 AM

Latest Report: Sep 1, 2014 at 9:20 AM


Visibility: 5 mi

Pressure: 30.07 "Hg

Humidity: 94%

Dew point: 55 °F

Location of HerfordLocation

Historic Weather in Herford — Graph

°F

Herford temperature yesterday

Maximum temperature yesterday: 64 °F (at 2:20 PM)
Minimum temperature yesterday: 54 °F (at 4:20 AM)
Average temperature yesterday: 58 °F

Past Weeks' High & Low Weather Summary

 TemperatureHumidityPressure
High75 °F (Aug 28, 5:20 PM)100% (Aug 27, 3:20 AM)30.07 "Hg (Aug 27, 3:20 AM)
Low45 °F (Aug 27, 3:20 AM)33% (Aug 27, 6:20 PM)29.59 "Hg (Aug 18, 8:20 AM)
Average58 °F77%29.90 "Hg
* Reported Aug 17 9:20 AM — Sep 1 9:20 AM, Herford, Weather by CustomWeather, © 2014

Note: Actual official high and low records may vary slightly from our data, if they occured in-between our weather recording intervals... More about our weather records

Advertising

Herford weather history for previous 24 hours

 ConditionsComfort  
Time TempWeatherWind HumidityBarometerVisibility
9:20 AM
Sep 1
57 °FPartly sunny.6 mph94%30.07 "Hg5 mi
8:20 AM55 °FBroken clouds.5 mph100%30.07 "Hg5 mi
7:20 AM55 °FLight rain. Fog.3 mph94%30.04 "HgN/A
6:20 AM54 °FFog.5 mph100%30.04 "HgN/A
5:20 AM50 °FPassing clouds.3 mph100%30.04 "HgN/A
4:20 AM52 °FPassing clouds.3 mph94%30.04 "HgN/A
3:20 AM52 °FPassing clouds.3 mph100%30.04 "HgN/A
2:20 AM52 °FPassing clouds.5 mph94%30.01 "HgN/A
1:20 AM54 °FPassing clouds.2 mph94%30.01 "HgN/A
12:20 AM52 °FPassing clouds.3 mph94%30.01 "HgN/A
11:20 PM
Aug 31
54 °FPassing clouds.1 mph94%29.98 "HgN/A
10:20 PM55 °FPassing clouds.6 mph88%29.98 "HgN/A
9:20 PM55 °FPassing clouds.6 mph88%29.98 "HgN/A
8:20 PM55 °FPassing clouds.3 mph100%29.95 "HgN/A
7:20 PM59 °FScattered clouds.2 mph88%29.92 "HgN/A
6:20 PM61 °FPartly sunny.2 mph83%29.92 "HgN/A
5:20 PM59 °FPartly sunny.1 mph82%29.92 "HgN/A
4:20 PM57 °FThunderstorms. Broken clouds.7 mph88%29.92 "HgN/A
3:20 PM64 °FBroken clouds.10 mph68%29.92 "HgN/A
2:20 PM64 °FBroken clouds.3 mph64%29.89 "HgN/A
1:20 PM63 °FScattered clouds.6 mph73%29.92 "HgN/A
12:20 PM63 °FScattered clouds.10 mph77%29.92 "HgN/A
11:20 AM61 °FBroken clouds.9 mph83%29.92 "Hg5 mi
10:20 AM59 °FFog.7 mph88%29.92 "Hg3 mi
Weather by CustomWeather, © 2014

See weather overviewHow to use our weather pages